Total_Precipitation_Accumulation
1.98 2.14 2.08 2.01 1.98 2.00 2.05 2.15 2.20 2.07 1.78 1.31 1.14 1.11 1.15 1.24 1.57 1.44 1.31 1.30 1.17 1.11 1.05 1.04 1.08 1.17 1.36 1.62 1.83 2.00 2.09 2.18 2.25 2.39 2.51 2.46 2.53 2.57
1.81 1.93 2.06 2.05 2.04 2.01 2.07 2.09 2.07 2.06 1.92 1.50 1.22 1.10 1.19 1.14 1.34 1.10 1.21 1.40 1.18 1.03 0.98 0.96 0.97 1.02 1.07 1.23 1.30 1.28 1.28 1.32 1.48 1.79 1.97 1.93 1.92 2.02
1.58 1.62 1.78 1.90 2.01 2.02 2.02 2.02 2.05 2.01 1.88 1.63 1.29 1.13 1.27 1.30 1.34 1.14 1.10 1.15 1.08 1.04 0.97 0.91 0.88 0.94 0.93 0.96 1.00 0.95 0.92 0.92 1.00 1.21 1.42 1.54 1.50 1.47
1.43 1.51 1.55 1.56 1.67 1.79 1.91 1.88 1.92 1.96 1.93 1.82 1.53 1.30 1.30 1.40 1.57 1.52 1.38 1.26 1.24 1.32 1.25 1.09 0.99 0.98 0.99 0.95 0.91 0.84 0.76 0.77 0.79 0.87 1.02 1.27 1.41 1.42
1.21 1.28 1.31 1.39 1.53 1.54 1.61 1.68 1.74 1.79 1.91 1.86 1.78 1.65 1.49 1.43 1.51 1.50 1.52 1.63 1.56 1.53 1.55 1.37 1.20 1.11 1.07 1.06 1.01 0.90 0.79 0.76 0.78 0.83 0.87 1.00 1.19 1.33
1.07 1.14 1.20 1.25 1.35 1.41 1.42 1.55 1.68 1.75 1.79 1.76 1.71 1.64 1.58 1.54 1.55 1.54 1.61 1.73 1.79 1.65 1.59 1.50 1.44 1.35 1.23 1.17 1.09 1.02 0.94 0.84 0.85 0.92 0.93 0.96 1.08 1.18
1.00 1.02 1.06 1.04 1.09 1.15 1.15 1.33 1.48 1.65 1.72 1.75 1.65 1.54 1.49 1.51 1.50 1.52 1.60 1.80 1.83 1.83 1.78 1.64 1.52 1.35 1.28 1.23 1.16 1.12 1.07 0.97 0.91 0.94 1.00 1.00 1.05 1.16
0.91 0.94 1.02 1.05 1.01 0.96 0.93 0.99 1.11 1.23 1.43 1.56 1.60 1.53 1.45 1.43 1.54 1.66 1.65 1.77 1.88 1.78 1.65 1.72 1.64 1.55 1.39 1.24 1.27 1.27 1.19 1.08 0.99 0.96 1.01 1.03 1.01 1.10
0.74 0.88 0.99 1.02 1.07 1.06 0.96 0.94 0.92 0.94 1.04 1.23 1.37 1.38 1.38 1.41 1.51 1.63 1.71 1.76 1.64 1.67 1.60 1.69 1.67 1.55 1.38 1.35 1.42 1.30 1.25 1.19 1.15 1.12 1.11 1.09 1.06 1.09
0.65 0.77 0.92 1.04 1.08 1.10 1.06 1.10 1.05 0.92 0.88 0.94 1.12 1.22 1.25 1.42 1.61 1.79 1.90 1.89 1.77 1.69 1.59 1.62 1.55 1.42 1.31 1.29 1.41 1.30 1.21 1.17 1.14 1.17 1.17 1.12 1.12 1.16
0.66 0.72 0.88 0.96 1.11 1.15 1.08 1.17 1.15 0.94 0.85 0.93 0.97 1.06 1.19 1.34 1.56 1.79 1.87 1.88 1.85 1.74 1.52 1.37 1.28 1.33 1.35 1.29 1.28 1.27 1.17 1.10 1.04 1.02 1.02 1.01 1.05 1.18
0.71 0.73 0.95 1.01 1.09 1.05 1.00 1.20 1.29 1.12 0.85 0.84 0.91 1.05 1.15 1.31 1.55 1.73 1.98 1.98 1.79 1.70 1.52 1.35 1.31 1.39 1.53 1.41 1.23 1.14 1.08 1.12 1.12 1.08 1.05 1.06 1.14 1.13
0.57 0.62 0.64 0.80 0.86 0.90 0.96 1.04 1.18 1.08 0.93 1.02 1.11 1.13 1.22 1.30 1.42 1.56 1.80 1.97 1.90 1.67 1.49 1.47 1.42 1.39 1.38 1.33 1.24 1.13 1.03 1.03 1.05 1.07 1.11 1.16 1.21 1.18
0.46 0.51 0.56 0.70 0.75 0.80 0.83 0.86 0.94 0.98 1.01 1.15 1.17 1.07 1.12 1.20 1.28 1.41 1.53 1.65 1.55 1.48 1.33 1.27 1.27 1.21 1.16 1.09 1.06 1.09 1.09 1.04 1.01 1.03 1.04 1.22 1.28 1.29
0.44 0.53 0.56 0.64 0.61 0.63 0.71 0.75 0.81 1.01 1.15 1.11 1.09 1.03 1.02 1.08 1.14 1.30 1.44 1.56 1.52 1.36 1.22 1.11 1.10 1.09 1.07 1.01 0.93 0.89 0.95 0.99 0.95 0.96 1.00 1.04 1.08 1.18
0.47 0.54 0.58 0.62 0.60 0.60 0.67 0.75 0.84 1.01 1.19 1.06 0.94 0.94 0.97 1.07 1.18 1.21 1.27 1.32 1.46 1.47 1.31 1.19 1.14 1.15 1.10 0.99 0.95 0.89 0.81 0.83 0.88 0.94 0.99 1.00 1.01 1.03
0.51 0.58 0.69 0.77 0.75 0.75 0.81 0.84 0.87 0.89 0.97 0.93 0.93 1.00 1.07 1.09 1.15 1.21 1.23 1.20 1.19 1.22 1.24 1.21 1.17 1.20 1.20 1.12 1.04 0.92 0.87 0.81 0.83 0.95 1.07 1.10 1.05 1.04
0.63 0.65 0.77 0.92 0.96 0.96 0.98 0.99 1.00 0.96 0.97 0.95 0.99 1.04 1.06 1.05 1.06 1.16 1.26 1.28 1.18 1.06 1.01 1.01 1.07 1.17 1.23 1.20 1.07 0.96 0.93 0.92 0.93 0.94 0.98 1.01 0.99 0.97
0.64 0.68 0.88 0.95 0.94 0.95 1.00 1.03 0.96 0.85 0.87 0.91 0.88 0.90 0.92 0.93 0.94 0.99 1.07 1.14 1.14 1.07 0.99 0.97 1.02 1.12 1.16 1.05 0.92 0.83 0.88 0.94 1.02 1.01 0.94 0.89 0.85 0.85
0.69 0.87 1.05 1.09 1.03 0.97 0.95 0.91 0.83 0.76 0.75 0.76 0.80 0.83 0.88 0.91 0.90 0.90 0.92 0.95 0.99 1.00 1.04 1.04 1.06 1.11 1.16 1.09 0.95 0.82 0.80 0.88 0.96 1.01 0.98 0.96 0.97 1.01
0.74 0.87 1.00 1.10 1.05 0.93 0.85 0.81 0.77 0.75 0.73 0.73 0.78 0.84 0.86 0.89 0.87 0.87 0.86 0.92 0.95 0.95 0.95 0.93 0.95 1.16 1.22 1.27 1.18 0.94 0.84 0.94 1.04 1.04 1.03 1.06 1.06 1.00
0.72 0.75 0.78 0.79 0.75 0.74 0.79 0.77 0.76 0.79 0.78 0.77 0.80 0.83 0.88 0.95 0.94 0.89 0.88 0.88 0.89 0.88 0.86 0.86 0.95 1.13 1.22 1.28 1.17 1.00 0.88 0.90 1.05 1.16 1.14 1.11 1.07 1.02
0.74 0.72 0.72 0.73 0.73 0.71 0.74 0.76 0.77 0.78 0.80 0.81 0.85 0.88 0.90 0.92 0.96 0.95 0.90 0.90 0.90 0.89 0.90 0.92 0.95 1.08 1.19 1.21 1.18 1.07 0.98 0.94 0.96 0.98 0.98 1.04 1.01 0.94